DAL88 KPHL-KEWR

Flight info

Callsign DAL88
Flight time 0h 17m
Altitude 13000
Route RUUTH V123 RBV
Aircraft B739/M-SDE2E3FGHIRWXY/LB1

Departure

Time 2026-04-26 16:18
Airport Philadelphia International Airport (KPHL)

Arrival

Time 2026-04-26 16:35
Airport Newark Liberty International Airport (KEWR)
Time Latitude Longitude Altitude Speed Heading
2026-04-26 15:55 39.87394 -75.24171 24 ft 0 kts 47°
2026-04-26 16:08 39.87389 -75.24177 30 ft 3 kts 56°
2026-04-26 16:08 39.87385 -75.24185 30 ft 3 kts 58°
2026-04-26 16:08 39.87379 -75.24216 26 ft 3 kts 123°
2026-04-26 16:08 39.87395 -75.24232 30 ft 3 kts 166°
2026-04-26 16:09 39.87405 -75.24234 27 ft 1 kts 174°
2026-04-26 16:12 39.87404 -75.24234 30 ft 1 kts 174°
2026-04-26 16:12 39.87310 -75.24202 27 ft 8 kts 153°
2026-04-26 16:13 39.87261 -75.24201 26 ft 8 kts 224°
2026-04-26 16:13 39.87242 -75.24264 26 ft 7 kts 255°
2026-04-26 16:13 39.87229 -75.24327 27 ft 7 kts 256°
2026-04-26 16:13 39.87216 -75.24393 29 ft 8 kts 255°
2026-04-26 16:14 39.87200 -75.24477 27 ft 11 kts 255°
2026-04-26 16:14 39.87177 -75.24588 24 ft 14 kts 255°
2026-04-26 16:14 39.87119 -75.24883 25 ft 19 kts 255°
2026-04-26 16:15 39.87083 -75.25060 28 ft 21 kts 255°
2026-04-26 16:15 39.87046 -75.25242 25 ft 21 kts 252°
2026-04-26 16:15 39.87010 -75.25419 26 ft 19 kts 257°
2026-04-26 16:16 39.86988 -75.25538 25 ft 5 kts 250°
2026-04-26 16:16 39.86965 -75.25572 26 ft 5 kts 209°
2026-04-26 16:16 39.86961 -75.25574 25 ft 0 kts 202°
2026-04-26 16:17 39.86952 -75.25575 26 ft 8 kts 185°
2026-04-26 16:17 39.86882 -75.25515 26 ft 14 kts 101°
2026-04-26 16:17 39.86917 -75.25326 27 ft 52 kts 75°
2026-04-26 16:17 39.87085 -75.24481 25 ft 137 kts 76°
2026-04-26 16:18 39.87368 -75.23083 533 ft 160 kts 71°
2026-04-26 16:18 39.87381 -75.20047 2198 ft 196 kts 97°
2026-04-26 16:19 39.86892 -75.16234 3200 ft 220 kts 97°
2026-04-26 16:19 39.86651 -75.14258 3909 ft 223 kts 96°
2026-04-26 16:19 39.86248 -75.10846 4898 ft 236 kts 96°
2026-04-26 16:20 39.85918 -75.07987 5587 ft 253 kts 97°
2026-04-26 16:20 39.85376 -75.03258 6860 ft 273 kts 96°
2026-04-26 16:20 39.85286 -75.00782 7550 ft 275 kts 76°
2026-04-26 16:21 39.86027 -74.98506 8309 ft 275 kts 51°
2026-04-26 16:21 39.87277 -74.96626 9094 ft 277 kts 44°
2026-04-26 16:21 39.88612 -74.94772 9856 ft 282 kts 44°
2026-04-26 16:21 39.89963 -74.92880 10453 ft 293 kts 44°
2026-04-26 16:22 39.91405 -74.90842 10641 ft 317 kts 45°
2026-04-26 16:22 39.92939 -74.88684 10795 ft 339 kts 43°
2026-04-26 16:22 39.94622 -74.86483 11160 ft 352 kts 42°
2026-04-26 16:22 39.96322 -74.84139 11753 ft 359 kts 45°
2026-04-26 16:23 39.97971 -74.81679 12428 ft 362 kts 46°
2026-04-26 16:23 39.99642 -74.79199 12923 ft 364 kts 45°
2026-04-26 16:23 40.01323 -74.76746 12979 ft 357 kts 45°
2026-04-26 16:23 40.02945 -74.74394 12996 ft 341 kts 45°
2026-04-26 16:24 40.04514 -74.72140 12983 ft 328 kts 44°
2026-04-26 16:24 40.06025 -74.69993 12982 ft 315 kts 44°
2026-04-26 16:24 40.07475 -74.67934 12975 ft 301 kts 44°
2026-04-26 16:24 40.08868 -74.65951 12593 ft 298 kts 44°
2026-04-26 16:25 40.10314 -74.63889 11546 ft 314 kts 45°
2026-04-26 16:25 40.11801 -74.61738 10602 ft 324 kts 45°
2026-04-26 16:25 40.13319 -74.59527 9899 ft 324 kts 46°
2026-04-26 16:25 40.14780 -74.57393 9655 ft 307 kts 45°
2026-04-26 16:26 40.16166 -74.55373 9558 ft 288 kts 45°
2026-04-26 16:26 40.17035 -74.54107 9569 ft 278 kts 45°
2026-04-26 16:26 40.18724 -74.51649 9615 ft 273 kts 45°
2026-04-26 16:26 40.20016 -74.49806 9622 ft 275 kts 40°
2026-04-26 16:27 40.21589 -74.48412 9640 ft 275 kts 26°
2026-04-26 16:27 40.23308 -74.47238 9625 ft 279 kts 25°
2026-04-26 16:27 40.25031 -74.46078 9614 ft 278 kts 25°
2026-04-26 16:27 40.26748 -74.44916 9624 ft 278 kts 25°
2026-04-26 16:28 40.28476 -74.43741 9110 ft 290 kts 25°
2026-04-26 16:28 40.30346 -74.42462 8085 ft 313 kts 26°
2026-04-26 16:28 40.32324 -74.41099 7284 ft 325 kts 27°
2026-04-26 16:28 40.34286 -74.39738 7110 ft 313 kts 27°
2026-04-26 16:29 40.36249 -74.38374 6308 ft 324 kts 27°
2026-04-26 16:29 40.37575 -74.37452 5808 ft 328 kts 28°
2026-04-26 16:29 40.39590 -74.36049 5383 ft 324 kts 28°
2026-04-26 16:29 40.41545 -74.34686 5233 ft 312 kts 28°
2026-04-26 16:30 40.44099 -74.32906 4409 ft 316 kts 29°
2026-04-26 16:30 40.45414 -74.31989 3985 ft 317 kts 30°
2026-04-26 16:30 40.46729 -74.31071 3801 ft 311 kts 30°
2026-04-26 16:30 40.48168 -74.30067 3737 ft 300 kts 30°
2026-04-26 16:31 40.49969 -74.28811 3607 ft 288 kts 31°
2026-04-26 16:31 40.51686 -74.27614 3362 ft 273 kts 30°
2026-04-26 16:31 40.53337 -74.26539 3051 ft 263 kts 28°
2026-04-26 16:31 40.54941 -74.25539 2713 ft 245 kts 28°
2026-04-26 16:32 40.56417 -74.24617 2428 ft 225 kts 29°
2026-04-26 16:32 40.57331 -74.24045 2253 ft 215 kts 28°
2026-04-26 16:32 40.58628 -74.23232 2042 ft 199 kts 30°
2026-04-26 16:32 40.59861 -74.22448 1814 ft 196 kts 30°
2026-04-26 16:33 40.61107 -74.21653 1556 ft 201 kts 30°
2026-04-26 16:33 40.62367 -74.20850 1278 ft 198 kts 29°
2026-04-26 16:33 40.63577 -74.20081 1027 ft 186 kts 29°
2026-04-26 16:33 40.64691 -74.19374 795 ft 173 kts 28°
2026-04-26 16:34 40.65686 -74.18741 596 ft 161 kts 29°
2026-04-26 16:34 40.66590 -74.18166 432 ft 154 kts 28°
2026-04-26 16:34 40.67403 -74.17640 240 ft 151 kts 28°
2026-04-26 16:34 40.68167 -74.17164 72 ft 141 kts 28°
2026-04-26 16:35 40.68529 -74.16934 38 ft 136 kts 28°
2026-04-26 16:35 40.68929 -74.16673 21 ft 117 kts 26°
2026-04-26 16:35 40.69061 -74.16590 22 ft 38 kts 25°
2026-04-26 16:35 40.69075 -74.16582 22 ft 0 kts 25°
2026-04-26 16:36 40.69182 -74.16517 26 ft 32 kts 24°
2026-04-26 16:36 40.69375 -74.16442 25 ft 26 kts 359°
2026-04-26 16:36 40.69493 -74.16483 22 ft 14 kts 303°
2026-04-26 16:36 40.69451 -74.16569 22 ft 12 kts 208°
2026-04-26 16:37 40.69407 -74.16601 22 ft 0 kts 227°
2026-04-26 16:37 40.69396 -74.16638 23 ft 8 kts 261°
2026-04-26 16:37 40.69428 -74.16730 22 ft 18 kts 303°
2026-04-26 16:37 40.69489 -74.16864 21 ft 18 kts 295°
2026-04-26 16:38 40.69530 -74.16991 23 ft 13 kts 286°
2026-04-26 16:38 40.69523 -74.17072 21 ft 8 kts 258°
2026-04-26 16:38 40.69514 -74.17133 21 ft 0 kts 262°
2026-04-26 16:42 40.69514 -74.17135 21 ft 2 kts 262°
2026-04-26 16:43 40.69500 -74.17214 21 ft 5 kts 243°
2026-04-26 16:43 40.69496 -74.17223 22 ft 0 kts 236°